• Em Portugal
  • Lista de países
  • Para 7 dias
  • Temperatura da água
  • Mapas de satélite
  • Mapa do tempo
  • Widgets de tempo
  • user-avatar
    Iniciar Sessão

    Previsão horária em Choybalsan

    Hoje, 23 Junho, Sábado

    Tempo Temperatura Precipitação Vento Pressão Humidade
    00:00 +21°C° 0 mm 2 m/s 687 mmHg 65%
    01:00 +21°C° 0 mm 2 m/s 687 mmHg 65%
    02:00 +20°C° 0 mm 2 m/s 687 mmHg 65%
    03:00 +20°C° 0 mm 2 m/s 687 mmHg 66%
    04:00 +20°C° 0 mm 1 m/s 687 mmHg 68%
    05:00 +20°C° 0 mm 1 m/s 687 mmHg 69%
    06:00 +21°C° 0 mm 1 m/s 688 mmHg 64%
    07:00 +23°C° 0 mm 1 m/s 688 mmHg 59%
    08:00 +24°C° 0 mm 1 m/s 688 mmHg 54%
    09:00 +26°C° 0 mm 1 m/s 688 mmHg 49%
    10:00 +27°C° 0 mm 1 m/s 688 mmHg 44%
    11:00 +29°C° 0 mm 1 m/s 688 mmHg 39%
    12:00 +30°C° 0 mm 2 m/s 688 mmHg 36%
    13:00 +30°C° 0 mm 2 m/s 688 mmHg 33%
    14:00 +31°C° 0 mm 3 m/s 688 mmHg 31%
    15:00 +30°C° 0 mm 3 m/s 688 mmHg 33%
    16:00 +30°C° 0 mm 3 m/s 688 mmHg 36%
    17:00 +29°C° 0 mm 3 m/s 687 mmHg 39%
    18:00 +28°C° 0 mm 3 m/s 687 mmHg 44%
    19:00 +26°C° 0 mm 2 m/s 687 mmHg 49%
    20:00 +25°C° 0 mm 2 m/s 686 mmHg 54%
    21:00 +24°C° 0 mm 3 m/s 686 mmHg 52%
    22:00 +23°C° 0 mm 4 m/s 686 mmHg 51%
    23:00 +22°C° 0 mm 4 m/s 685 mmHg 49%

    Amanhã, 24 Junho, Domingo

    Tempo Temperatura Precipitação Vento Pressão Humidade
    00:00 +22°C° 0,2 mm 4 m/s 685 mmHg 51%
    01:00 +21°C° 0,2 mm 4 m/s 685 mmHg 52%
    02:00 +21°C° 0,2 mm 4 m/s 684 mmHg 54%
    03:00 +21°C° 0,3 mm 4 m/s 684 mmHg 61%
    04:00 +20°C° 0,3 mm 4 m/s 683 mmHg 67%
    05:00 +20°C° 0,3 mm 4 m/s 683 mmHg 73%
    06:00 +19°C° 1,6 mm 3 m/s 683 mmHg 78%
    07:00 +19°C° 1,6 mm 3 m/s 683 mmHg 82%
    08:00 +18°C° 1,6 mm 3 m/s 683 mmHg 86%
    09:00 +18°C° 1,2 mm 4 m/s 683 mmHg 85%
    10:00 +19°C° 1,2 mm 5 m/s 683 mmHg 84%
    11:00 +19°C° 1,2 mm 6 m/s 683 mmHg 83%
    12:00 +20°C° 0 mm 7 m/s 683 mmHg 77%
    13:00 +21°C° 0 mm 7 m/s 683 mmHg 70%
    14:00 +22°C° 0 mm 7 m/s 684 mmHg 63%
    15:00 +23°C° 0 mm 7 m/s 684 mmHg 59%
    16:00 +23°C° 0 mm 6 m/s 684 mmHg 55%
    17:00 +25°C° 0 mm 5 m/s 685 mmHg 51%
    18:00 +23°C° 0 mm 4 m/s 685 mmHg 55%
    19:00 +22°C° 0 mm 3 m/s 685 mmHg 60%
    20:00 +21°C° 0 mm 3 m/s 685 mmHg 64%
    21:00 +20°C° 0 mm 3 m/s 685 mmHg 64%
    22:00 +19°C° 0 mm 3 m/s 685 mmHg 65%
    23:00 +19°C° 0 mm 3 m/s 686 mmHg 65%

    Depois de amanhã, 25 Junho, Segunda-feira

    Tempo Temperatura Precipitação Vento Pressão Humidade
    00:00 +18°C° 0 mm 3 m/s 685 mmHg 66%
    01:00 +17°C° 0 mm 3 m/s 685 mmHg 67%
    02:00 +17°C° 0 mm 3 m/s 685 mmHg 68%
    03:00 +16°C° 0 mm 3 m/s 685 mmHg 69%
    04:00 +16°C° 0 mm 3 m/s 685 mmHg 69%
    05:00 +16°C° 0 mm 3 m/s 685 mmHg 70%
    06:00 +17°C° 0 mm 3 m/s 685 mmHg 65%
    07:00 +19°C° 0 mm 4 m/s 686 mmHg 60%
    08:00 +20°C° 0 mm 4 m/s 686 mmHg 56%
    09:00 +21°C° 0 mm 5 m/s 686 mmHg 52%
    10:00 +22°C° 0 mm 6 m/s 686 mmHg 49%
    11:00 +23°C° 0 mm 7 m/s 686 mmHg 45%
    12:00 +24°C° 0 mm 7 m/s 686 mmHg 45%
    13:00 +24°C° 0 mm 7 m/s 686 mmHg 45%
    14:00 +26°C° 0 mm 6 m/s 685 mmHg 45%
    15:00 +26°C° 0 mm 6 m/s 685 mmHg 46%
    16:00 +26°C° 0 mm 6 m/s 685 mmHg 46%
    17:00 +26°C° 0 mm 5 m/s 685 mmHg 47%
    18:00 +23°C° 0 mm 4 m/s 685 mmHg 53%
    19:00 +22°C° 0 mm 4 m/s 685 mmHg 59%
    20:00 +21°C° 0 mm 3 m/s 685 mmHg 65%
    21:00 +20°C° 0 mm 3 m/s 685 mmHg 68%
    22:00 +19°C° 0 mm 2 m/s 685 mmHg 71%
    23:00 +18°C° 0 mm 2 m/s 685 mmHg 74%

    26 Junho, Terça-feira

    Tempo Temperatura Precipitação Vento Pressão Humidade
    00:00 +17°C° 0 mm 2 m/s 685 mmHg 76%
    01:00 +17°C° 0 mm 2 m/s 684 mmHg 77%
    02:00 +16°C° 0 mm 3 m/s 684 mmHg 79%
    03:00 +16°C° 0 mm 3 m/s 684 mmHg 81%
    04:00 +14°C° 0 mm 3 m/s 684 mmHg 83%
    05:00 +14°C° 0 mm 3 m/s 684 mmHg 85%
    06:00 +16°C° 0 mm 3 m/s 684 mmHg 78%
    07:00 +17°C° 0 mm 3 m/s 685 mmHg 72%
    08:00 +18°C° 0 mm 3 m/s 685 mmHg 65%
    09:00 +19°C° 0 mm 4 m/s 685 mmHg 62%
    10:00 +20°C° 0 mm 4 m/s 685 mmHg 58%
    11:00 +21°C° 0 mm 5 m/s 685 mmHg 55%
    12:00 +21°C° 0,3 mm 5 m/s 685 mmHg 56%
    13:00 +21°C° 0,3 mm 6 m/s 685 mmHg 56%
    14:00 +22°C° 0,3 mm 7 m/s 685 mmHg 57%
    15:00 +21°C° 0,5 mm 7 m/s 685 mmHg 58%
    16:00 +21°C° 0,5 mm 7 m/s 685 mmHg 60%
    17:00 +21°C° 0,5 mm 7 m/s 684 mmHg 61%
    18:00 +20°C° 0,3 mm 6 m/s 684 mmHg 66%
    19:00 +19°C° 0,3 mm 6 m/s 684 mmHg 71%
    20:00 +17°C° 0,3 mm 5 m/s 684 mmHg 76%
    21:00 +16°C° 0,1 mm 5 m/s 684 mmHg 80%
    22:00 +15°C° 0,1 mm 5 m/s 685 mmHg 83%
    23:00 +15°C° 0,1 mm 5 m/s 685 mmHg 86%

    27 Junho, Quarta-feira

    Tempo Temperatura Precipitação Vento Pressão Humidade
    00:00 +14°C° 0,1 mm 6 m/s 685 mmHg 88%
    01:00 +14°C° 0,1 mm 6 m/s 684 mmHg 89%
    02:00 +14°C° 0,1 mm 6 m/s 684 mmHg 90%
    03:00 +14°C° 0,3 mm 6 m/s 685 mmHg 90%
    04:00 +14°C° 0,3 mm 6 m/s 685 mmHg 90%
    05:00 +14°C° 0,3 mm 7 m/s 685 mmHg 91%
    06:00 +15°C° 0,3 mm 7 m/s 686 mmHg 87%
    07:00 +16°C° 0,3 mm 8 m/s 686 mmHg 83%
    08:00 +17°C° 0,3 mm 8 m/s 687 mmHg 79%
    09:00 +18°C° 0,1 mm 8 m/s 687 mmHg 73%
    10:00 +21°C° 0,1 mm 8 m/s 687 mmHg 67%
    11:00 +22°C° 0,1 mm 8 m/s 688 mmHg 61%
    12:00 +23°C° 0,4 mm 8 m/s 688 mmHg 58%
    13:00 +24°C° 0,4 mm 8 m/s 687 mmHg 55%
    14:00 +24°C° 0,4 mm 8 m/s 687 mmHg 52%
    15:00 +24°C° 0,1 mm 8 m/s 687 mmHg 51%
    16:00 +24°C° 0,1 mm 8 m/s 687 mmHg 51%
    17:00 +24°C° 0,1 mm 7 m/s 688 mmHg 51%
    18:00 +23°C° 0 mm 6 m/s 688 mmHg 56%
    19:00 +22°C° 0 mm 4 m/s 688 mmHg 62%
    20:00 +21°C° 0 mm 2 m/s 688 mmHg 67%
    21:00 +20°C° 0 mm 2 m/s 688 mmHg 68%
    22:00 +19°C° 0 mm 2 m/s 687 mmHg 69%
    23:00 +19°C° 0 mm 2 m/s 687 mmHg 70%

    28 Junho, Quinta-feira

    Tempo Temperatura Precipitação Vento Pressão Humidade
    00:00 +18°C° 0 mm 3 m/s 687 mmHg 71%
    01:00 +18°C° 0 mm 3 m/s 687 mmHg 72%
    02:00 +18°C° 0 mm 3 m/s 687 mmHg 73%
    03:00 +18°C° 0 mm 4 m/s 687 mmHg 74%
    04:00 +17°C° 0 mm 4 m/s 687 mmHg 74%
    05:00 +17°C° 0 mm 4 m/s 687 mmHg 74%
    06:00 +19°C° 0 mm 4 m/s 687 mmHg 69%
    07:00 +21°C° 0 mm 4 m/s 687 mmHg 63%
    08:00 +22°C° 0 mm 4 m/s 687 mmHg 58%
    09:00 +25°C° 0 mm 4 m/s 687 mmHg 51%
    10:00 +27°C° 0 mm 5 m/s 687 mmHg 45%
    11:00 +28°C° 0 mm 5 m/s 687 mmHg 38%
    12:00 +29°C° 0 mm 5 m/s 687 mmHg 36%
    13:00 +30°C° 0 mm 5 m/s 686 mmHg 35%
    14:00 +30°C° 0 mm 5 m/s 686 mmHg 33%
    15:00 +30°C° 0 mm 5 m/s 686 mmHg 33%
    16:00 +30°C° 0 mm 4 m/s 686 mmHg 34%
    17:00 +30°C° 0 mm 4 m/s 686 mmHg 35%
    18:00 +28°C° 0 mm 3 m/s 686 mmHg 41%
    19:00 +27°C° 0 mm 2 m/s 685 mmHg 47%
    20:00 +25°C° 0 mm 1 m/s 685 mmHg 53%
    21:00 +25°C° 0 mm 2 m/s 685 mmHg 52%
    22:00 +24°C° 0 mm 2 m/s 685 mmHg 52%
    23:00 +24°C° 0 mm 3 m/s 685 mmHg 52%
    Mostrar mais